Powrót do katalogu

STARLINK-31137

AktywnyŁącznośćVLEO
NORAD 58686·PAYLOAD·🇺🇸 United States

Wystrzelony Dec 29, 2023 z Cape Canaveral Space Force Station

Loading…

Następne Przeloty (najbliższe 24 godziny)

TLE

ŚwieżeSource: CelesTrak SupGP

Epoka: Sep 15, 2026, 03:26 UTC

1 58686C 23211V   26258.14354167  .00002394  00000+0  86669-4 0  2580
2 58686  42.9998  95.4476 0001514 271.4998 241.2120 15.27587213    16

Śledź STARLINK-31137 w czasie rzeczywistym z AllMySat

Download on the App Store